| |
Missouri Department of Transportation

Social Media Facebook Twitter Flickr Blog YouTube RSS

Current METAR Information for All MoDOT Locations 
AWOS Home - General Info for all Airports
Current AWOS for all Airports - Current METAR for all Airports
Glossary - Disclaimer - Other Links


Automated Weather Observation System
Date: 10-22-2014
 
Location Current METAR Record
HANNIBAL METAR KHAE 230327Z AUTO 12003KT 10SM CLR 11/04 A3021 RMK AO2
HARRISONVILLE  No current data available
LEBANON METAR KLBO 230335Z AUTO 15003KT 10SM CLR 09/07 A3019 RMK AO2
MALDEN  No current data available
MARSHALL METAR KMHL 230411Z AUTO 11006KT 10SM CLR 14/08 A3017 RMK AO2
MARYVILLE  No current data available
MEXICO  No current data available
MOBERLY  No current data available
NEVADA METAR KNVD 230402Z AUTO 14007KT 10SM CLR 15/10 A3015 RMK AO2
PIEDMONT  No current data available
SIKESTON  No current data available
SULLIVAN METAR KUUV 230344Z AUTO 00000KT 10SM CLR 10/05 A3025 RMK AO2
WARSAW  No current data available
About Us
How Do I...
Contact Us
Missouri Department of Transportation
Central Office
105 W. Capitol Avenue
Jefferson City, MO 65102
1-888-ASK-MODOT (275-6636)
1-866-831-6277 (Motor Carrier Services)
Drivers License Offices
horz_bar
| | |
Missouri State Government
© 2013 Missouri Department of Transportation. All Rights Reserved.   Privacy Policy.
 
 
 
 
RSS FeedYoutubeBlogFlickrTwitter Facebook